Regional Weather Roundup
Issued by NWS

Home | Current Version | Previous Version | Text Only | Print | Product List | Glossary On
Versions: 1 2 3 4 5 6 7 8 9 10 11 12 13 14 15 16 17 18 19 20 21 22 23 24 25 26 27 28 29 30 31 32 33 34 35 36 37 38 39 40 41 42 43 44 45 46 47 48 49 50
397
ASUS43 KTOP 220159
RWRKS

WEATHER ROUNDUP FOR KANSAS
NATIONAL WEATHER SERVICE GOODLAND KS
800 PM CST SAT JAN 21 2017

NOTE:  "FAIR" INDICATES FEW OR NO CLOUDS BELOW 12,000 FEET WITH NO
SIGNIFICANT WEATHER AND/OR OBSTRUCTIONS TO VISIBILITY.

KSZ001>006-013>018-027>032-041>047-220300-
NORTHWEST KANSAS

CITY           SKY/WX    TMP DP  RH WIND       PRES   REMARKS
GOODLAND       CLEAR     32  28  85 N7        29.50R
HAYS           MOCLDY    44  36  73 NE9       29.47R
HILL CITY      CLOUDY    37  34  89 N8        29.50R
RUSSELL        CLOUDY    44  37  76 NE8       29.46R
$$

KSZ061>065-074>080-084>089-220300-
SOUTHWEST KANSAS

CITY           SKY/WX    TMP DP  RH WIND       PRES   REMARKS
DODGE CITY     LGT RAIN  43  38  82 NE6       29.42R
ELKHART          N/A     38  30  73 NW12        N/A  WCI  30
GARDEN CITY    LGT RAIN  42  38  85 NE12      29.42R
GREAT BEND     PTCLDY    42  38  85 NE6       29.45R
LIBERAL        CLOUDY    45  36  70 NE12      29.37R
$$

KSZ066>073-081>083-090>101-220300-
SOUTHEAST KANSAS

CITY           SKY/WX    TMP DP  RH WIND       PRES   REMARKS
CHANUTE        MOCLDY    51  39  63 E8        29.45F
COFFEYVILLE    MOCLDY    49  45  86 NE7       29.43S
HUTCHINSON     CLOUDY    46  42  86 E5        29.44R
MEDICINE LODGE   N/A     46  38  73 E13       29.39S
NEWTON         LGT RAIN  44  43  96 E12       29.45R
PARSONS        CLOUDY    50  43  77 NE5       29.44F
WICHITA INTL   CLOUDY    47  42  83 E8        29.43R
WICHITA JABRA  CLOUDY    45  43  93 E8        29.44S
WICHITA MCCONL CLOUDY    46  41  81 NE8       29.43R
WINFIELD       CLOUDY    49  39  68 NE9       29.42F
$$

KSZ007>012-019>026-033>040-048>060-102>105-220300-
NORTHEAST KANSAS

CITY           SKY/WX    TMP DP  RH WIND       PRES   REMARKS
CONCORDIA      CLOUDY    44  38  79 NE5       29.50R
EMPORIA        CLOUDY    46  44  93 N6        29.47F
LAWRENCE       LGT RAIN  46  45  96 N3        29.51F
MANHATTAN      CLOUDY    50  40  68 N3        29.49S
OLATHE IND     CLOUDY    48  44  86 SE7       29.52R
OLATHE EXE     CLOUDY    46  44  93 SE5       29.52R
SALINA         MOCLDY   N/A N/A N/A MISG        N/A
TOPEKA BILLARD LGT RAIN  47  43  86 CALM      29.51S
TOPEKA FORBES  LGT RAIN  47  45  93 MISG      29.50F
$$




USA.gov is the U.S. government's official web portal to all federal, state and local government web resources and services.